sat.trackr.live / text

‹ back to catalog

KUIPER-00554

NORAD 69619 · 2026-140AD

PAYLOAD ACTIVE UNKNOWN

§ Identity

Operator
Country
US
Launch date
2026-06-17
Launch site
FRGUI
Launch vehicle
Mass (kg)
RCS (m²)

External: N2YO · Heavens-Above · Gunter

§ Orbital elements

Epoch: 2026-09-19T17:25:40.017504Z

Period
93.68 min
Inclination
51.8777°
Eccentricity
0.0009702
Mean motion
15.37169600 rev/d
Perigee alt
447.9 km
Apogee alt
461.1 km
Semi-major
6,832.6 km
B*
2.7258e-4
RAAN
301.1329°
Arg perigee
157.9334°
Mean anomaly
202.2073°
Rev number
1,578

§ Raw data

KUIPER-005541 69619U 26140AD  26262.72615761  .00009708  00000+0  27258-3 0  99972 69619  51.8777 301.1329 0009702 157.9334 202.2073 15.37169600 15782

JSON: /api/v1/satellites/69619 · /tle

For live sub-satellite position, see the globe view (requires WebGL).

§ Visibility from observer

Set your observer location to see the next 7 days of passes ≥ 10°. The values pass through the URL so the page stays shareable.

No JS? Fill the form by hand. The geolocation button needs JavaScript.